Location: Anjeux
(47.8815°N, 6.2076°E)
Time: 23:50:39
(UTC+00:00)

ISS - Pass Details

Date: 30 September 2021
Orbit: 417 x 423 km, 51.6° (Epoch: 20 October)

Event Time Altitude Azimuth Distance (km) Brightness Sun altitude
Rises 18:51:49 0° 293° (WNW) 2,368 1.8 -16.7°
Reaches altitude 10° 18:53:55 10° 293° (WNW) 1,503 0.3 -17.1°
Maximum altitude 18:57:17 89° 219° (SW) 426 -3.8 -17.6°
Enters shadow 18:57:56 56° 116° (ESE) 506 -3.8 -17.7°
